Date,TemperatureHighF,TemperatureAvgF,TemperatureLowF,DewpointHighF,DewpointAvgF,DewpointLowF,HumidityHigh,HumidityAvg,HumidityLow,PressureMaxIn,PressureMinIn,WindSpeedMaxMPH,WindSpeedAvgMPH,GustSpeedMaxMPH,PrecipitationSumIn
2013-4-1,62,53,48,50,48,45,94,82,65,30.12,29.93,14,2,22,0.01
2013-4-2,56,52,50,49,47,45,92,82,75,30.16,30.11,13,3,17,0.01
2013-4-3,61,53,47,50,46,44,95,80,56,30.15,29.91,6,0,12,0.00
2013-4-4,57,53,50,54,50,47,98,90,82,29.91,29.60,16,2,24,0.15
2013-4-5,57,53,49,52,49,46,96,88,75,29.82,29.68,29,9,33,0.07
2013-4-6,52,48,46,48,45,42,96,88,77,29.89,29.66,24,9,31,0.05
2013-4-7,46,44,41,44,42,39,95,93,90,29.83,29.45,11,2,17,0.03
2013-4-8,53,48,43,48,44,41,96,88,73,30.21,29.84,8,2,10,0.01
2013-4-9,54,50,44,46,43,38,94,79,61,30.30,30.14,13,2,16,0.00
2013-4-10,58,52,49,51,47,43,95,81,70,30.22,29.90,21,7,28,0.02
2013-4-11,51,48,44,44,41,38,95,78,61,30.27,30.14,13,4,17,0.02
2013-4-12,47,44,42,45,40,37,96,86,72,30.14,29.62,19,6,28,0.07
2013-4-13,48,43,39,43,40,36,96,88,77,29.95,29.71,21,6,27,0.30
2013-4-14,53,45,40,41,39,33,100,80,48,29.96,29.86,14,2,21,0.01
2013-4-15,54,46,41,42,40,37,94,81,52,30.13,29.90,22,2,27,0.00
2013-4-16,54,46,39,43,40,34,98,82,48,30.34,30.13,24,2,26,0.02
2013-4-17,58,49,40,44,40,36,94,73,44,30.40,30.34,11,2,16,0.00
2013-4-18,51,47,45,47,42,40,91,83,75,30.40,30.29,12,5,16,0.03
2013-4-19,54,52,48,52,50,48,98,95,88,30.16,30.01,11,3,17,0.15
2013-4-20,55,50,47,50,47,45,97,90,74,30.24,30.16,15,4,19,0.05
2013-4-21,53,47,44,46,42,39,96,84,64,30.33,30.19,11,2,16,0.01
2013-4-22,59,49,39,42,37,25,97,67,28,30.48,30.33,12,2,17,0.00
2013-4-23,61,49,38,43,38,27,94,68,28,30.39,30.20,15,2,19,0.00
2013-4-24,68,54,43,46,40,32,93,64,29,30.28,30.02,14,1,17,0.00
2013-4-25,70,56,45,49,43,38,88,63,35,30.08,30.00,7,1,10,0.00
2013-4-26,65,54,48,51,48,46,95,83,58,30.20,30.09,13,2,13,0.00
2013-4-27,56,54,52,49,47,42,86,76,61,30.18,30.11,19,10,27,0.00
2013-4-28,58,51,48,49,46,42,94,83,59,30.18,29.91,22,6,29,0.01
2013-4-29,54,48,43,48,40,31,96,75,43,30.11,29.86,14,5,21,0.01
2013-4-30,53,46,38,39,36,30,90,69,43,30.39,30.11,11,3,20,0.01